{"data":{"norad_id":68209,"intl_designator":"2026-053C","name":"STARLINK-36948","alt_names":[],"object_type":"PAYLOAD","status":"ACTIVE","operator":null,"country":"US","launch_date":"2026-03-17","launch_site_code":"AFWTR","launch_vehicle":null,"mission":null,"orbit_class":"UNKNOWN","rcs_meters":null,"size_class":null,"mass_kg":null,"dimensions":null,"purposes":["comms"],"wikipedia_slug":null,"has_3d_model":false,"image_url":null,"decayed_at":null,"tle_current":{"epoch":"2026-05-25T02:12:15.516864Z","epoch_age_seconds":63066,"freshness":"FRESH","line1":"1 68209U 26053C   26145.09184626  .00013526  00000+0  42077-3 0  9994","line2":"2 68209  97.2874  20.4922 0002053  81.0115 279.1360 15.33427905 11907","mean_motion":15.33427905,"eccentricity":0.0002053,"inclination_deg":97.2874,"raan_deg":20.4922,"arg_perigee_deg":81.0115,"mean_anomaly_deg":279.136,"bstar":0.00042077,"rev_number":1190,"period_min":93.907251544376,"perigee_km":464.18901966127,"apogee_km":466.99905562533,"semimajor_km":6843.7310376433,"source":"CELESTRAK","updated_at":"2026-05-25T13:38:21.877409Z"}}}